www.pogodaiklimat.ru

Погода и климат >> Архив погоды >> Дания >> Рёмё


ПОГОДА в Рёмё

  • Прогноз погоды в Рёмё
  • Монитор погоды в Рёмё

АРХИВ ПОГОДЫ в Рёмё

Время (UTC), дата Ветер
(напр.,м/с)
 
Видим.   Явления Облачность Т
(С)
Тd
(С)
f
(%)
Тe
(С)
Тes
(С)
Комфортность P
(гПа)
Po
(гПа)
Тmin
(С)
Tmax
(С)
R
(мм)
R24
(мм)
S
(см)
10 10.08 Ю 12 21 км 9/9 1500 м
[]
+20.3 +16.4 78 +22 +22 комфорт 1003.3 1002.2
11 10.08 ЮЗ 9 11 км слаб. ливневой дождь 9/9 800 м
[]
+19.0 +16.6 86 +20 +20 1003.5 1002.5
12 10.08 ЮЗ 13-19
{19}
16 км {ливн. осадки, дождь} 9/9 700 м
[]
+20.5 +15.9 75 +23 +23 комфорт 1003.4 1002.3
13 10.08 ЮЗ 14 6000 м сильн. ливневой дождь 9/9 480 м
[]
+17.2 +14.9 86 +15 +15 1003.9 1002.9
14 10.08 ЮЗ 14 4400 м ливневой дождь 6/6 630 м
[]
+17.7 +16.0 90 +16 +16 1004.4 1003.3
15 10.08 ЮЗ 13-19
{21}
9000 м дымка {ливн. осадки, дождь} 6/6 660 м
[]
+19.9 +15.8 77 +21 +21 комфорт 1004.6 1003.6
16 10.08 ЮЗ 13 9000 м дымка 4/4 1230 м
[]
+19.6 +14.8 74 +20 +20 1004.8 1003.8
17 10.08 ЮЗ 13 9000 м дымка {ливн. осадки} 9/9 840 м
[]
+19.7 +14.8 73 +20 +20 1004.8 1003.7
18 10.08 ЮЗ 13
{23}
8000 м в посл. час морось {ливн. осадки, дождь} 9/9 840 м
[]
+18.4 +15.3 82 +18 +18 1005.0 1003.9 +16.7 +21.6
19 10.08 ЮЗ 14 7000 м в посл. час дождь {ливн. осадки} 9/9 720 м
[]
+18.6 +15.5 82 +18 +18 1005.2 1004.1
20 10.08 ЮЗ 14 7000 м дымка 9/9 800 м
[]
+18.8 +15.6 82 +18 +18 1005.4 1004.4
21 10.08 ЮЗ 14
{23}
7000 м в посл. час морось {ливн. осадки} 9/9 660 м
[]
+18.7 +15.7 83 +18 +18 1005.3 1004.2
22 10.08 ЮЗ 14 8000 м в посл. час морось {ливн. осадки} 9/9 660 м
[]
+18.8 +15.7 82 +18 +18 1005.4 1004.4
23 10.08 ЮЗ 16 8000 м дымка 9/9 630 м
[]
+18.7 +15.6 82 +18 +18 1005.7 1004.7
00 11.08 ЮЗ 14
{23}
8000 м дымка {ливн. осадки} 9/9 1380 м
[]
+18.7 +15.5 82 +18 +18 1005.9 1004.9
01 11.08 ЮЗ 15 9000 м дымка 6/6 700 м
[]
+18.6 +15.2 81 +18 +18 1005.9 1004.8
02 11.08 ЮЗ 13 10 км 9/9 720 м
[]
+18.3 +14.6 79 +17 +17 1006.0 1004.9
03 11.08 ЮЗ 14
{21}
13 км {дымка} 1/1 800 м
[]
+18.2 +13.5 74 +17 +17 1006.1 1005.0
04 11.08 ЮЗ 12 9000 м слаб. ливневой дождь {морось} 6/6 840 м
[]
+17.5 +14.0 80 +16 +16 1006.4 1005.3
05 11.08 ЮЗ 13 12 км в посл. час морось {ливн. осадки} 6/6 700 м
[]
+18.0 +13.7 76 +16 +16 1006.5 1005.5
06 11.08 ЮЗ 14-20
{21}
14 км {ливн. осадки, дождь} 9/9 700 м
[]
+17.8 +13.0 73 +16 +16 1007.2 1006.1 +16.4 +19.1
07 11.08 ЮЗ 14 16 км 1/1 840 м
[]
+18.8 +13.0 69 +18 +18 1007.6 1006.6
08 11.08 ЮЗ 13 16 км 1/1 800 м
[]
+19.6 +13.6 68 +20 +20 1008.1 1007.0
09 11.08 ЮЗ 12
{20}
15 км 6/6 700 м
[]
+19.4 +14.0 71 +20 +20 1008.8 1007.8
10 11.08 ЮЗ 13 16 км 1/1 660 м
[]
+19.7 +14.1 70 +20 +20 1009.4 1008.3
11 11.08 ЮЗ 14 15 км 1/1 700 м
[]
+20.4 +14.6 69 +22 +22 комфорт 1009.6 1008.6
12 11.08 ЮЗ 14
{20}
13 км 1/1 720 м
[]
+20.2 +14.7 71 +22 +22 комфорт 1009.9 1008.9
13 11.08 ЮЗ 13 16 км 4/4 720 м
[]
+20.3 +14.0 67 +22 +22 комфорт 1010.2 1009.2
14 11.08 ЮЗ 12 14 км 4/4 700 м
[]
+20.1 +14.0 68 +21 +21 комфорт 1010.2 1009.2
15 11.08 ЮЗ 12 17 км 1/1 750 м
[]
+19.9 +13.6 67 +21 +21 комфорт 1010.1 1009.1
16 11.08 ЮЗ 12 19 км 1/1 800 м
[]
+19.6 +13.8 69 +20 +20 1009.9 1008.8
17 11.08 ЮЗ 10 15 км 4/4 750 м
[]
+19.0 +14.1 73 +19 +19 1010.1 1009.0
18 11.08 ЮЗ 10 15 км 4/4 700 м
[]
+18.4 +13.9 75 +18 +18 1010.0 1008.9 +17.8 +20.6
19 11.08 ЮЗ 9 14 км 6/6 720 м
[]
+18.2 +13.8 75 +17 +17 1010.1 1009.1
20 11.08 ЮЗ 9 16 км 9/9 800 м
[]
+18.0 +13.8 76 +17 +17 1010.3 1009.2
21 11.08 ЮЗ 9 15 км 9/9 700 м
[]
+18.0 +14.2 78 +17 +17 1010.2 1009.2
22 11.08 ЮЗ 10 17 км 9/9 700 м
[]
+18.2 +13.9 76 +17 +17 1010.0 1009.0
23 11.08 ЮЗ 9 16 км 9/9 660 м
[]
+18.2 +14.4 78 +17 +17 1009.9 1008.8
00 12.08 ЮЗ 10 15 км 10/10 630 м
[]
+18.1 +14.6 80 +17 +17 1009.4 1008.4
01 12.08 ЮЗ 10 14 км 9/9 540 м
[]
+17.9 +14.9 83 +17 +17 1008.9 1007.9
02 12.08 ЮЗ 9 14 км 9/9 450 м
[]
+17.9 +15.2 84 +17 +17 1008.6 1007.6
03 12.08 ЮЗ 9 14 км в посл. час морось {ливн. осадки, дождь} 4/4 420 м
[]
+17.7 +15.3 86 +17 +17 1008.7 1007.6
04 12.08 ЮЗ 10 9000 м слаб. дождь {морось} 9/9 450 м
[]
+16.0 +13.5 85 +14 +14 1009.0 1008.0
05 12.08 ЮЗ 8 16 км в посл. час дождь {ливн. осадки} 6/6 600 м
[]
+17.3 +14.8 85 +16 +16 1008.8 1007.8
06 12.08 ЮЗ 7
{13}
20 км {ливн. осадки, дождь} 6/6 500 м
[]
+17.7 +15.0 84 +17 +17 1008.9 1007.8 +15.9 +18.4
07 12.08 ЮЗ 9 28 км 1/1 570 м
[]
+18.3 +14.1 76 +18 +18 1009.3 1008.2
08 12.08 ЮЗ 10 30 км 1/1 600 м
[]
+18.8 +13.9 73 +19 +19 1009.5 1008.4
09 12.08 ЮЗ 10 30 км 4/4 630 м
[]
+19.2 +13.4 69 +19 +20 1010.0 1008.9
10 12.08 З 10 25 км 4/4 700 м
[]
+19.5 +13.4 68 +20 +20 1010.2 1009.1
11 12.08 З 11 22 км 1/1 870 м
[]
+18.2 +11.0 63 +17 +17 1010.6 1009.5
12 12.08 З 12 22 км 1/1 1020 м
[]
+18.6 +10.3 58 +18 +18 1010.8 1009.7
13 12.08 ЮЗ 11 20 км 4/4 900 м
[]
+18.2 +10.9 62 +17 +17 1011.2 1010.2
14 12.08 З 11 19 км 1/1 900 м
[]
+18.5 +11.2 62 +18 +18 1011.0 1009.9
15 12.08 З 10 19 км 4/4 800 м
[]
+18.1 +11.7 66 +17 +17 1011.1 1010.0
16 12.08 З 9 19 км 6/6 750 м
[]
+17.5 +11.7 69 +16 +16 1011.2 1010.1
17 12.08 З 7 18 км 6/6 800 м
[]
+17.0 +11.4 70 +16 +16 1010.8 1009.8
18 12.08 З 7 20 км 6/6 840 м
[]
+16.7 +11.2 70 +15 +15 1010.7 1009.7 +16.7 +20.0
19 12.08 З 6 21 км 4/4 840 м
[]
+16.1 +10.7 70 +15 +15 1010.9 1009.8
20 12.08 ЮЗ 5 23 км 6/6 1260 м
[]
+15.4 +10.0 70 +14 +14 1011.5 1010.4
21 12.08 ЮЗ 3 23 км 9/9 800 м
[]
+15.6 +11.6 77 +15 +15 1011.5 1010.4
22 12.08 ЮЗ 5 13 км слаб. ливневой дождь 9/9 700 м
[]
+15.7 +12.9 83 +15 +15 1010.9 1009.9
23 12.08 ЮЗ 3 25 км в посл. час дождь {ливн. осадки} 9/9 1500 м
[]
+15.0 +13.1 88 +14 +14 1010.9 1009.8
00 13.08 СЗ 4 14 км слаб. ливневой дождь 9/9 450 м
[]
+14.9 +13.4 91 +14 +14 1010.6 1009.6
01 13.08 СЗ 5 35 км слаб. ливневой дождь 9/9 960 м
[]
+15.7 +12.7 82 +14 +14 1010.4 1009.3
02 13.08 СЗ 6 30 км в посл. час морось {ливн. осадки} 9/9 660 м
[]
+15.6 +12.3 81 +14 +14 1010.3 1009.3
03 13.08 СЗ 7 35 км {ливн. осадки} 9/9 720 м
[]
+15.4 +12.2 81 +14 +14 1010.3 1009.2
04 13.08 СЗ 7 35 км 10/0 2000 м
[]
+15.1 +11.3 78 +13 +13 1010.4 1009.3
05 13.08 СЗ 4 30 км 1/1 800 м
[]
+14.8 +11.4 80 +14 +14 1010.6 1009.5
06 13.08 СЗ 5
{10}
35 км {ливн. осадки, дождь} 4/4 800 м
[]
+15.6 +10.7 73 +14 +15 1010.9 1009.8 +13.9 +16.7
07 13.08 СЗ 5 35 км 6/6 800 м
[]
+16.1 +10.9 71 +15 +16 1011.2 1010.1
08 13.08 З 6 35 км 6/6 870 м
[]
+16.2 +10.3 68 +15 +16 1011.4 1010.3
09 13.08 СЗ 8 40 км 9/9 1350 м
[]
+16.6 +9.6 63 +15 +15 1011.7 1010.6
10 13.08 З 7 35 км 9/9 870 м
[]
+15.9 +9.7 67 +14 +15 1012.0 1010.9
11 13.08 З 7 30 км 4/0
[]
+16.5 +8.8 60 +15 +18 1012.4 1011.3
12 13.08 З 8 35 км 6/6 960 м
[]
+16.2 +9.2 63 +15 +16 1012.5 1011.4
13 13.08 З 6 30 км слаб. ливневой дождь 9/9 1080 м
[]
+15.5 +10.1 70 +14 +14 1012.8 1011.7
14 13.08 З 9 28 км {ливн. осадки} 9/9 1500 м
[]
+16.4 +9.5 64 +15 +15 1013.0 1011.9
15 13.08 З 7 40 км {ливн. осадки, дождь} 1/1 1500 м
[]
+16.2 +8.8 62 +15 +16 1013.2 1012.1
16 13.08 З 8 40 км 1/1 1050 м
[]
+16.6 +7.7 56 +15 +16 1013.2 1012.1
17 13.08 З 7 35 км 4/4 960 м
[]
+16.2 +9.4 64 +15 +15 1013.3 1012.2
18 13.08 З 6 35 км {ливн. осадки, дождь} 1/1 1440 м
[]
+15.4 +8.6 64 +14 +14 1013.3 1012.2 +15.0 +17.2
19 13.08 З 6 40 км 1/1 1000 м
[]
+14.8 +8.8 67 +13 +13 1013.6 1012.5
20 13.08 З 5 45 км 4/4 1020 м
[]
+14.2 +8.5 69 +13 +13 1013.8 1012.7
21 13.08 З 5 45 км 1/1 1300 м
[]
+13.8 +8.3 69 +12 +12 1013.8 1012.7
22 13.08 З 4 40 км 4/4 1170 м
[]
+13.2 +8.5 73 +12 +12 1013.6 1012.5
23 13.08 З 5 45 км в посл. час дождь {ливн. осадки} 1/1 1050 м
[]
+13.8 +8.9 72 +12 +12 1013.3 1012.2
00 14.08 З 6
{12}
21 км дождь {ливн. осадки} 9/9 720 м
[]
+12.9 +9.2 78 +11 +11 1013.3 1012.2
01 14.08 СЗ 5 40 км в посл. час дождь {ливн. осадки} 9/0
[]
+13.4 +9.8 79 +11 +11 1013.1 1012.0
02 14.08 З 5 22 км слаб. ливневой дождь 9/9 1500 м
[]
+12.8 +9.2 79 +11 +11 1013.3 1012.2
03 14.08 З 2 30 км слаб. морось {дождь} 9/9 750 м
[]
+12.9 +10.4 85 +12 +12 1013.2 1012.2
04 14.08 З 5 40 км {морось} 6/6 800 м
[]
+13.7 +9.9 78 +12 +12 1013.1 1012.1
05 14.08 З 3 30 км ливневой дождь 4/4 750 м
[]
+14.1 +9.3 73 +13 +13 1013.4 1012.3
06 14.08 З 6
{11}
35 км {ливн. осадки, дождь} 1/1 960 м
[]
+15.1 +10.7 75 +14 +14 1013.7 1012.6 +12.6 +15.4
07 14.08 З 7 29 км 1/1 960 м
[]
+16.4 +9.9 65 +15 +16 1013.7 1012.6
08 14.08 З 6 29 км 4/4 1500 м
[]
+16.8 +9.8 63 +16 +17 1013.9 1012.8
09 14.08 З 8 35 км в посл. час дождь {ливн. осадки} ясно +17.0 +9.2 60 +16 +18 1013.9 1012.8
10 14.08 З 7 30 км 1/1 900 м
[]
+16.9 +9.6 62 +16 +18 1013.9 1012.9
11 14.08 З 7 30 км 6/6 900 м
[]
+16.6 +10.4 67 +15 +17 1014.1 1013.0
12 14.08 З 8 30 км {ливн. осадки, дождь} 1/1 1020 м
[]
+17.0 +10.1 64 +16 +18 1014.3 1013.2
13 14.08 З 5 30 км в посл. час дождь {ливн. осадки} 9/9 900 м
[]
+16.9 +10.8 67 +16 +17 1014.3 1013.2
14 14.08 З 7 30 км 1/1 960 м
[]
+17.9 +9.2 57 +17 +19 1014.1 1013.0
15 14.08 З 7
{14}
35 км {ливн. осадки, дождь} 6/6 900 м
[]
+17.5 +9.5 59 +17 +17 1014.1 1013.1
16 14.08 ЮЗ 6 40 км 1/0
[]
+17.1 +9.4 60 +16 +18 1014.0 1012.9
17 14.08 ЮЗ 6 40 км 6/6 1260 м
[]
+16.9 +10.2 65 +16 +16 1013.6 1012.6
18 14.08 ЮЗ 4
{14}
35 км {ливн. осадки, дождь} 9/9 1440 м
[]
+16.2 +11.1 72 +15 +15 1013.5 1012.4 +13.9 +18.4
19 14.08 Ю 5 12 км ливневой дождь 9/9 700 м
[]
+15.1 +12.8 86 +14 +14 1013.2 1012.2
20 14.08 Ю 5 28 км слаб. ливневой дождь 9/9 1050 м
[]
+15.3 +12.2 82 +14 +14 1013.0 1011.9
21 14.08 Ю 4 23 км в посл. час дождь {ливн. осадки} 9/9 1470 м
[]
+14.5 +12.3 87 +13 +13 1012.5 1011.4
22 14.08 ЮВ 4 20 км в посл. час морось {ливн. осадки} 9/9 1500 м
[]
+14.8 +13.1 90 +14 +14 1011.9 1010.8
23 14.08 Ю 4 22 км {ливн. осадки} 10/10 1410 м
[]
+14.9 +13.0 88 +14 +14 1011.4 1010.4
00 15.08 ЮВ 4 23 км {ливн. осадки, дождь} 9/9 1440 м
[]
+14.5 +12.3 87 +13 +13 1010.9 1009.8
01 15.08 ЮВ 5 25 км слаб. морось 10/0 2000 м
[]
+14.6 +11.7 83 +13 +13 1010.0 1008.9
02 15.08 Ю 7 18 км слаб. ливневой дождь {морось} 9/9 660 м
[]
+15.0 +12.3 84 +13 +13 1009.2 1008.2
03 15.08 ЮВ 5 11 км слаб. ливневой дождь {морось} 9/9 500 м
[]
+14.4 +12.7 90 +13 +13 1008.4 1007.4
04 15.08 ЮВ 6 7000 м слаб. ливневой дождь 9/9 420 м
[]
+13.7 +12.8 94 +11 +11 1007.7 1006.7
05 15.08 ЮВ 7 8000 м слаб. ливневой дождь 9/9 500 м
[]
+13.4 +12.5 94 +11 +11 1007.1 1006.1
06 15.08 ЮВ 7 7000 м слаб. ливневой дождь {морось} 10/10 270 м
[]
+13.2 +12.2 94 +11 +11 1006.5 1005.4 +13.2 +16.2
07 15.08 ЮВ 8 7000 м слаб. ливневой дождь 10/10 150 м
[]
+13.4 +12.8 96 +11 +11 1005.7 1004.6
08 15.08 ЮВ 7 8000 м слаб. ливневой дождь 10/10 120 м
[]
+14.1 +13.5 96 +12 +12 1005.5 1004.5
09 15.08 ЮВ 7 6000 м в посл. час морось {ливн. осадки} 10/10 120 м
[]
+14.4 +13.9 97 +12 +12 1004.8 1003.7
10 15.08 ЮВ 7 5000 м слаб. ливневой дождь 10/10 90 м
[]
+15.0 +14.5 97 +13 +13 1004.8 1003.7
11 15.08 ЮВ 8 3400 м ливневой дождь 9/9 60 м
[]
+15.1 +14.8 98 +13 +13 1004.1 1003.1
12 15.08 Ю 5 8000 м слаб. ливневой дождь 9/9 150 м
[]
+17.2 +16.8 97 +16 +17 1004.6 1003.5
13 15.08 Ю 5 15 км {ливн. осадки} 9/9 210 м
[]
+18.2 +16.6 90 +18 +19 1004.5 1003.4
14 15.08 Ю 5 17 км слаб. ливневой дождь 9/9 210 м
[]
+18.2 +16.8 92 +18 +19 1004.4 1003.3
15 15.08 ЮЗ 7 27 км {ливн. осадки, дождь} 6/6 240 м
[]
+19.4 +17.3 88 +21 +22 комфорт 1004.7 1003.6
16 15.08 З 6 27 км 9/9 270 м
[]
+18.6 +16.5 88 +19 +19 1004.8 1003.8
17 15.08 З 9 20 км слаб. ливневой дождь {морось} 6/6 330 м
[]
+17.4 +15.8 90 +16 +16 1005.1 1004.1
18 15.08 З 9
{15}
13 км {ливн. осадки, дождь} 10/10 330 м
[]
+16.6 +14.9 90 +15 +15 1006.0 1005.0 +13.2 +19.8
19 15.08 З 8 17 км слаб. ливневой дождь {морось} 9/9 450 м
[]
+16.8 +14.7 87 +15 +15 1006.9 1005.9
20 15.08 З 8 21 км {ливн. осадки} 4/4 480 м
[]
+16.7 +14.2 85 +15 +15 1007.7 1006.7
21 15.08 З 6 22 км {ливн. осадки, морось} 9/9 480 м
[]
+17.0 +14.6 86 +16 +16 1008.5 1007.5
22 15.08 З 6 24 км 9/9 1320 м
[]
+17.0 +14.5 85 +16 +16 1008.9 1007.8
23 15.08 З 7 25 км 10/10 1110 м
[]
+17.0 +14.4 85 +16 +16 1008.9 1007.9
00 16.08 З 7 21 км {ливн. осадки, морось} 4/4 450 м
[]
+16.5 +14.3 87 +15 +15 1009.1 1008.0
01 16.08 З 9 21 км 9/9 420 м
[]
+16.8 +14.5 86 +15 +15 1009.4 1008.4
02 16.08 З 7 19 км 1/1 450 м
[]
+16.4 +14.4 88 +15 +15 1009.6 1008.6
03 16.08 СЗ 10 22 км 9/9 420 м
[]
+16.3 +14.6 90 +14 +14 1009.7 1008.6
04 16.08 СЗ 7 7000 м дымка 10/10 420 м
[]
+15.9 +14.4 91 +14 +14 1010.6 1009.5
05 16.08 СЗ 8 19 км в посл. час морось {ливн. осадки, дождь} 9/9 480 м
[]
+16.1 +13.2 83 +14 +14 1011.2 1010.2
06 16.08 З 7 25 км {ливн. осадки, дождь} 10/10 660 м
[]
+16.5 +12.3 76 +15 +15 1011.9 1010.8 +15.5 +17.4
07 16.08 З 6 35 км 9/9 720 м
[]
+16.7 +11.8 73 +16 +16 1012.4 1011.4
08 16.08 З 7 28 км 9/9 870 м
[]
+16.7 +11.5 71 +16 +16 1012.9 1011.8
09 16.08 З 8 19 км 6/6 800 м
[]
+17.8 +11.5 67 +17 +18 1012.8 1011.8
10 16.08 З 7 27 км 6/6 840 м
[]
+17.5 +10.7 64 +17 +18 1013.4 1012.3
11 16.08 З 7 21 км 1/1 1020 м
[]
+17.6 +9.9 61 +17 +20 1013.5 1012.4
12 16.08 З 7 30 км 1/0
[]
+17.7 +9.5 59 +17 +20 1013.5 1012.4
13 16.08 З 6 28 км 1/0
[]
+17.2 +9.7 61 +16 +21 1013.5 1012.4
14 16.08 ЮЗ 6 28 км 4/4 900 м
[]
+17.6 +10.5 63 +17 +19 1013.2 1012.1
15 16.08 ЮЗ 6 28 км 9/9 930 м
[]
+17.8 +11.2 65 +17 +17 1012.7 1011.7
16 16.08 Ю 5 30 км 4/4 930 м
[]
+17.7 +11.7 68 +17 +18 1012.2 1011.1
17 16.08 Ю 5 30 км 6/6 750 м
[]
+17.6 +12.8 73 +17 +17 1011.7 1010.7
18 16.08 Ю 4 35 км 9/9 1380 м
[]
+17.3 +11.9 71 +17 +17 1011.4 1010.3 +16.2 +19.3
19 16.08 Ю 5 30 км 9/9 1500 м
[]
+16.7 +12.2 75 +16 +16 1011.0 1010.0
20 16.08 Ю 6 25 км 9/0
[]
+16.4 +13.7 84 +15 +15 1010.5 1009.5
21 16.08 ЮВ 5 24 км 9/9 1500 м
[]
+16.2 +13.6 85 +15 +15 1010.0 1008.9
22 16.08 ЮВ 5 30 км 9/9 1500 м
[]
+15.8 +13.1 84 +15 +15 1009.1 1008.0
23 16.08 Ю 6 22 км слаб. морось {дождь} 9/9 1500 м
[]
+16.5 +13.4 82 +15 +15 1008.2 1007.1
00 17.08 Ю 7 19 км слаб. ливневой дождь 9/9 1500 м
[]
+16.9 +14.0 83 +16 +16 1007.5 1006.5
01 17.08 Ю 7 11 км слаб. ливневой дождь 10/10 1470 м
[]
+17.0 +14.7 86 +16 +16 1006.8 1005.8
02 17.08 Ю 8 16 км слаб. морось {дождь} 9/9 540 м
[]
+16.5 +14.7 89 +15 +15 1005.8 1004.8
03 17.08 Ю 9 9000 м слаб. дождь 9/9 450 м
[]
+16.4 +15.1 92 +15 +15 1005.2 1004.2
04 17.08 Ю 10 7000 м дождь 9/9 400 м
[]
+16.4 +15.1 92 +14 +14 1004.4 1003.4
05 17.08 Ю 9 5000 м слаб. дождь 9/9 210 м
[]
+16.3 +15.5 95 +15 +15 1003.5 1002.5
06 17.08 Ю 10 4800 м слаб. ливневой дождь 9/9 210 м
[]
+16.1 +15.3 95 +14 +14 1003.5 1002.4 +15.8 +17.3
07 17.08 Ю 10 5000 м морось {ливн. осадки} 9/9 150 м
[]
+16.2 +15.4 95 +14 +14 1003.1 1002.0
08 17.08 Ю 10 4600 м слаб. ливневой дождь {морось} 9/9 120 м
[]
+16.3 +15.6 96 +14 +14 1003.1 1002.0
09 17.08 Ю 9 11 км {ливн. осадки, морось} 10/10 240 м
[]
+17.2 +16.0 93 +16 +16 1003.0 1001.9
10 17.08 Ю 8 7000 м дымка 9/9 210 м
[]
+17.5 +16.3 93 +16 +17 1003.2 1002.1

 

Местоположение метеостанции Рёмё (Дания): широта 55.18 долгота 8.57 высота над уровнем моря 9 м.

В архиве по умолчанию представлена погода в Рёмё за последнюю неделю. Архивные данные за месяц целиком и за предыдущие месяцы, начиная с января 2011 года, Вы можете получить, выбрав интересующий диапазон дат из раскрывающегося списка и нажав кнопку "Ввод!".


*Определитесь, кто Вы:
робот инопланетянин человек

Внимание! Время в таблицах - всемирное. Для получения местного времени необходимо прибавить поправку, которая равна 1 ч.

Смотрите также архив погоды в соседних городах и на ближайших метеорологических станциях:

Погода в Вестер Ведстед (Дания) (14 км)
Погода в Листе (Германия) (20 км)
Погода в Эсбьерге (Дания) (39 км)
Погода в Скрыдструпе (Дания) (45 км)
Погода в Аскове (Дания) (47 км)
Погода в Леке (Германия) (49 км)
Погода на Мысе Blaavandshuk (Дания) (52 км)
Погода в Вамдрупе (Дания) (56 км)
Погода в Глюксбурге (Германия) (71 км)
Погода в Биллунде (Дания) (72 км)

Пояснения к столбцам:

Ветер - указаны скорость ветра в м/с - средняя за 10 мин, порывы в срок и между сроками (в фигурных скобках) и направление, откуда дует ветер: С - северный, СВ - северо-восточный, В - восточный, ЮВ - юго-восточный, Ю - южный, ЮЗ - юго-западный, З - западный, СЗ - северо-западный.
Видимость - горизонтальная дальность видимости в метрах или километрах. При видимости от 1 до 10 км при отсутствии осадков обычно наблюдается дымка, при ухудшении видимости до 1 км и менее - туман. В сухую погоду видимость может ухудшаться дымом, пылью или мглою.
Явления - указаны атмосферные явления, наблюдавшиеся в срок или в последний час перед сроком; фигурными скобками обозначены явления, наблюдавшиеся между сроками (за 1-3 часа до срока); квадратными скобками обозначены град или гололедные отложения с указанием их диаметра в мм.
Облачность - указаны через наклонную черту общая и нижняя облачность в баллах и высота нижней границы облаков в метрах; квадратными скобками обозначены формы облаков: Ci - перистые, Cs - перисто-слоистые, Cc - перисто-кучевые, Ac - высококучевые, As - высокослоистые, Sc - слоисто-кучевые, Ns - слоисто-дождевые, Cu - кучевые, Cb - кучево-дождевые. Подробнее классификацию облаков см. в Атласе облаков (PDF).
T - Температура воздуха - температура, измеренная на высоте 2 м над землей.
Td - Температура точки росы - температура, при понижении до которой содержащийся в воздухе водяной пар достигнет насыщения.
f - Относительная влажность воздуха - влажноcть воздуха, измеренная на высоте 2 м над землей.
Te - Эффективная температура - температура, которую ощущает одетый по сезону человек в тени. Характеристика душности погоды. При расчете учитывается влияние влажности воздуха и скорости ветра на теплоощущения человека.
Tes - Эффективная температура на солнце - температура, которую ощущает человек, с поправкой на солнечный нагрев. Характеристика знойности погоды. Зависит от высоты солнца над горизонтом, облачности и скорости ветра. Ночью, в пасмурную погоду, а также при ветре 12 м/с и более поправка равна нулю.
P - Атмосферное давление - приведенное к уровню моря атмосферное давление.
Po - Атмосферное давление - измеренное на уровне метеостанции атмосферное давление.
Tmin - Минимальная температура - минимум температуры воздуха на высоте 2 м над землей.
Tmax - Максимальная температура - максимум температуры воздуха на высоте 2 м над землей.
R - Количество осадков - Количество выпавших осадков за период времени, мм. При наведении курсора мыши на число - период времени, за который выпало указанное количество осадков.
R24 - Количество осадков - Количество выпавших осадков за 24 часа, мм.
S - Снежный покров - Высота снежного покрова, см. При наведении курсора мыши на число - состояние снежного покрова и степень покрытия местности в баллах.